Location: Friaudour
(46.0460°N, 1.2873°E)
Time: 21:09:44
(UTC+00:00)

Cosmos 1190 Rocket - Pass Details

Date: 14 July 2020
Orbit: 756 x 781 km, 74.1° (Epoch: 14 August)

Event Time Altitude Azimuth Distance (km) Brightness Sun altitude
Exits shadow 02:06:33 28° 216° (SW) 1,403 4.8 -16.6°
Maximum altitude 02:09:19 70° 293° (WNW) 815 4.1 -16.3°
Drops below altitude 10° 02:14:34 10° 18° (NNE) 2,319 7.7 -15.8°
Sets 02:16:59 0° 20° (NNE) 3,254 8.9 -15.6°
